Regional Weather Roundup
Issued by NWS Sterling, VA

Home | Current Version | Previous Version | Text Only | Print | Product List | Glossary On
Versions: 1 2 3 4 5 6 7 8 9 10 11 12 13 14 15 16 17 18 19 20 21 22 23 24 25 26 27 28 29 30 31 32 33 34 35 36 37 38 39 40 41 42 43 44 45 46 47 48 49 50
000
ASUS41 KLWX 032310
RWRLWX

REGIONAL WEATHER ROUNDUP
NATIONAL WEATHER SERVICE BALTIMORE MD/WASHINGTON DC
700 PM EDT WED JUN 03 2015

Note: "FAIR" indicates few or no clouds below 12,000 feet
with no significant weather and/or obstructions to visibility.
 TC=TEMPERATURE CELSIUS

 * =Non NWS site. Station does not report precipitation (e.g. rain,
    snow, etc.), thunder, or fog.

DCZ001-MDZ009-015-VAZ040>042-051-053>054-040000-
WASHINGTON METRO

CITY           SKY/WX    TMP DP  RH WIND       PRES   REMARKS
WASHINGTON NAT CLOUDY    64  56  75 E8        30.15F
DULLES         CLOUDY    59  54  83 E6        30.15F
ANDREWS AFB    CLOUDY    59  57  94 E8        30.14F
FT BELVOIR     CLOUDY    59  55  88 CALM      30.15S
QUANTICO       CLOUDY    60  57  89 E13       30.15F
COLLEGE PARK*  CLOUDY    61  57  88 E3        30.15S
LEESBURG*      CLOUDY    61  59  94 E3        30.16S
MANASSAS*      CLOUDY    61  57  88 N41       30.16S
GAITHERSBURG*  CLOUDY    59  54  82 CALM      30.19F

$$

MDZ006>007-011-014-040000-
BALTIMORE METRO

CITY           SKY/WX    TMP DP  RH WIND       PRES   REMARKS
BWI AIRPORT    CLOUDY    62  55  77 E7        30.15S
MD SCIENCE CTR   N/A     64  55  72 MISG      30.16S
MARTIN STATE   CLOUDY    64  59  82 CALM      30.17S
ANNAPOLIS      CLOUDY    62  57  83 SE6       30.15F
FORT MEADE*    CLOUDY    61  54  77 NE6       30.17F

$$

MDZ012-015-019>023-040000-
MARYLAND EASTERN SHORE

CITY           SKY/WX    TMP DP  RH WIND       PRES   REMARKS
OCEAN CITY     CLOUDY    60  56  86 NE12      30.13S
SALISBURY      CLOUDY    57  55  93 NE14      30.13S
BAY BRIDGE AP*   N/A    N/A N/A N/A E8        30.16S
CAMBRIDGE*     CLOUDY    59  55  88 NE7       30.14S
EASTON*        CLOUDY    59  59 100 E12       30.19S

$$

MDZ017>025-040000-
SOUTHERN MARYLAND

CITY           SKY/WX    TMP DP  RH WIND       PRES   REMARKS
PATUXENT RIVER CLOUDY    59  56  89 NE12      30.13S
ST INIGOES     LGT RAIN  59  57  93 NE8       30.12S FOG
LEONARDTOWN*   CLOUDY    57  55  94 NE6       30.15S

$$

MDZ003>005-040000-
NORTH CENTRAL MARYLAND

CITY           SKY/WX    TMP DP  RH WIND       PRES   REMARKS
FREDERICK*     CLOUDY    63  57  82 CALM      30.18F
HAGERSTOWN APT CLOUDY    62  53  72 E5        30.15F
WESTMINSTER*   CLOUDY    63  57  82 CALM      30.16S

$$

MDZ501>502-040000-
WESTERN MARYLAND

CITY           SKY/WX    TMP DP  RH WIND       PRES   REMARKS
OAKLAND*       FOG       52 N/A N/A SE12      30.14S VSB<1/4
CUMBERLAND*    CLOUDY    61  55  82 E5        30.19R

$$

VAZ025>031-040000-
SHENANDOAH VALLEY

CITY           SKY/WX    TMP DP  RH WIND       PRES   REMARKS
WINCHESTER*    CLOUDY    59  57  94 E3        30.16S
FRONT ROYAL*   CLOUDY    57  55  94 CALM      30.14S
LURAY*         CLOUDY    61  59  94 N6        30.14S
NEW MARKET*    CLOUDY    58  55  91 NE6       30.13R
STAUNTON*      CLOUDY    61  58  90 NE6       30.15S
WAYNESBORO*    CLOUDY    56  56  99 SE6       30.13S

$$

WVZ021-048>050-054>055-040000-
EASTERN WEST VIRGINIA PANHANDLE

CITY           SKY/WX    TMP DP  RH WIND       PRES   REMARKS
MARTINSBURG    CLOUDY    60  54  80 CALM      30.16F
PETERSBURG*    CLOUDY    61  55  81 NE3       30.14S

$$

VAZ036>039-050-040000-
CENTRAL FOOTHILLS

CITY           SKY/WX    TMP DP  RH WIND       PRES   REMARKS
CHARLOTTESVILL CLOUDY    58  56  93 NE8       30.14S FOG
CULPEPER*      CLOUDY    57  57  98 CALM      30.16R
ORANGE*        CLOUDY    59  57  94 CALM      30.16R
GORDONSVILLE*  CLOUDY    57  57 100 N6        30.13S
WARRENTON*     CLOUDY    59  58  98 NE3       30.15S

$$

VAZ055>057-040000-
NORTH AND CENTRAL PIEDMONT

CITY           SKY/WX    TMP DP  RH WIND       PRES   REMARKS
FREDERICKSBRG* CLOUDY    61  61 100 NE5       30.13S FOG
STAFFORD*      CLOUDY    58  56  94 NE5       30.18S FOG

$$

NCZ024-NYZ072-PAZ021-071-VAZ022-071-040000-
OTHER REGIONAL OBSERVATIONS

CITY           SKY/WX    TMP DP  RH WIND       PRES   REMARKS
NEW YORK CITY  PTSUNNY   60  49  66 VRB7      30.22R
PHILADELPHIA   CLOUDY    66  50  56 SE9       30.17S
PITTSBURGH     CLOUDY    70  56  61 E8        30.07F
ROANOKE        CLOUDY    60  58  92 SE5       30.13R
RICHMOND       DRIZZLE   62  59  90 NE8       30.11S FOG
RALEIGH        LGT RAIN  65  63  93 NE10      30.05S FOG

$$

ANZ530>537-040000-
MARINE OBSERVATIONS

STATION/POSITION TIME  TEMP    WIND        PRES
                       AIR SEA DIR/SP/G
                 (UTC) (F)     (DEG/KT/KT) (MB)
THOMAS PT LIGHT  2300   60 70   90/ 13/ 16 1021.7F
BALT KEY BRIDGE  2200   63      60/  5/  6 1021.0F
COVE POINT       2200   58      80/ 11/ 15 1021.3F
LEWISETTA        2200   61 70              1019.7F
SOLOMONS ISLAND  2200      71                N/A
PINEY POINT      2200           70/  8/ 11   N/A

$$




USA.gov is the U.S. government's official web portal to all federal, state and local government web resources and services.